#datint,netname,site,siteID,timestamp,IntT,BattV,AirT2,AirT,AirT_Avg,AirT_Max,AirT_Min,RH_Avg,RH_Max,RH_Min,EA_Avg,Td_Avg,Td_Max,Td_Min,WindS_Smp,WindS_Avg,WindD_Avg,WindD_SD,WindS_Max,ETo,ETr,SoilT4,SoilT8,SoilVWC8,SolarW_Avg,wetstate_Avg,wetT_Avg,Precip_accum,Precip_WPG,Precip_TB
15min,AgWx,beryljct,423,30JAN2018:00:00:00,31.6,12.88,34.3,34.5,34.2,34.6,33.8,80,81,78,0.528,28.6,28.9,28.3,3.617,4.2,178,5.8,5.2,-0.00005,-0.00004,35.4,32.0,0,0,0,35.7,12.06,0.00,0.00
15min,AgWx,beryljct,423,30JAN2018:00:15:00,31.7,12.88,37.5,37.5,35.8,37.5,33.9,75,80,69,0.527,28.6,29.2,28.2,2.126,3.9,179,5.5,5.3,-0.00004,-0.00003,35.2,36.9,21,0,0,35.9,12.06,0.00,0.00
15min,AgWx,beryljct,423,30JAN2018:00:30:00,31.9,12.87,34.6,34.8,36.4,37.6,34.8,72,76,69,0.520,28.3,28.5,28.0,3.398,2.1,176,12,3.4,-0.00011,-0.00013,35.2,36.8,22,0,0,35.5,12.06,0.00,0.00
15min,AgWx,beryljct,423,30JAN2018:00:45:00,31.9,12.84,32.9,32.8,33.0,34.7,32.5,82,84,76,0.527,28.0,28.4,27.7,3.683,1.3,152,53,3.7,-0.00016,-0.00021,35.1,36.8,22,0,0,35.8,12.06,0.00,0.00
15min,AgWx,beryljct,423,30JAN2018:01:00:00,31.9,12.84,30.3,30.5,31.6,33.1,30.5,84,84,83,0.479,27.2,28.6,26.1,5.459,5.3,333,20,7.3,-0.00004,-0.00003,34.9,36.8,22,0,0,35.5,12.06,0.00,0.00
15min,AgWx,beryljct,423,30JAN2018:01:15:00,31.6,12.83,30.6,30.4,30.4,30.6,30.1,83,83,83,0.476,25.9,26.2,25.6,5.064,4.0,324,8.1,5.4,-0.00006,-0.00006,35.0,36.8,22,0,0,35.8,12.06,0.00,0.00
15min,AgWx,beryljct,423,30JAN2018:01:30:00,31.4,12.83,30.4,30.6,30.7,30.9,30.5,83,83,83,0.481,26.3,26.4,26.0,0.943,3.7,338,6.4,5.4,-0.00007,-0.00007,34.8,36.7,22,0,0,35.9,12.06,0.00,0.00
15min,AgWx,beryljct,423,30JAN2018:01:45:00,31.1,12.82,30.7,30.8,30.7,30.9,30.5,83,83,83,0.484,26.2,26.4,26.0,3.332,0.6,15,18,3.9,-0.00019,-0.00028,34.8,36.7,22,0,0,35.7,12.06,0.00,0.00
15min,AgWx,beryljct,423,30JAN2018:02:00:00,30.8,12.82,29.6,30.0,30.3,30.9,29.8,84,84,83,0.473,25.9,26.5,25.5,1.14,1.9,70,18,3.3,-0.00013,-0.00016,34.7,36.7,22,0,0,35.5,12.06,0.00,0.00
15min,AgWx,beryljct,423,30JAN2018:02:15:00,30.2,12.8,28.5,28.9,29.4,30.0,28.7,84,84,84,0.453,25.2,25.7,24.5,2.017,1.3,80,31,2.3,-0.00015,-0.00020,34.7,36.6,22,0,0,35.6,12.06,0.00,0.00
15min,AgWx,beryljct,423,30JAN2018:02:30:00,29.6,12.8,29.0,29.2,28.9,29.4,28.5,84,84,83,0.455,24.6,25.1,24.2,3.924,2.2,159,25,4.7,-0.00011,-0.00014,34.6,36.6,22,0,0,35.6,12.06,0.00,0.00
15min,AgWx,beryljct,423,30JAN2018:02:45:00,29.1,12.8,28.7,29.0,28.8,29.3,28.4,84,84,83,0.452,24.5,24.9,24.1,3.508,2.6,169,3.8,4.7,-0.00009,-0.00011,34.5,36.6,22,0,0,35.4,12.06,0.00,0.00
15min,AgWx,beryljct,423,30JAN2018:03:00:00,28.7,12.67,28.9,29.2,29.1,29.4,28.7,84,84,83,0.456,24.8,25.1,24.4,0.855,2.7,155,11,4.1,-0.00009,-0.00011,34.5,36.5,22,0,0,36.0,12.06,0.00,0.00
15min,AgWx,beryljct,423,30JAN2018:03:15:00,28.2,12.78,27.6,27.8,28.2,29.2,27.7,84,84,84,0.433,24.1,25.0,23.6,1.513,1.3,199,9.9,2.7,-0.00015,-0.00019,34.4,36.4,22,0,0,35.5,12.06,0.00,0.00
15min,AgWx,beryljct,423,30JAN2018:03:30:00,27.7,12.78,27.8,28.0,27.9,28.2,27.6,84,84,83,0.434,23.7,23.9,23.3,1.841,1.8,203,1.9,3.5,-0.00012,-0.00016,34.4,36.4,22,0,0,35.5,12.06,0.00,0.00
15min,AgWx,beryljct,423,30JAN2018:03:45:00,27.5,12.77,28.7,28.8,28.2,28.9,27.7,84,84,83,0.446,23.9,24.5,23.4,3.376,3.3,185,7.3,4.7,-0.00007,-0.00008,34.3,36.3,22,0,0,35.7,12.06,0.00,0.00
15min,AgWx,beryljct,423,30JAN2018:04:00:00,27.4,12.77,28.7,28.8,28.6,28.9,28.2,84,84,83,0.448,24.2,24.6,23.9,5.568,3.3,181,8.4,5.6,-0.00008,-0.00008,34.1,36.3,22,0,0,35.6,12.06,0.00,0.00
15min,AgWx,beryljct,423,30JAN2018:04:15:00,27.6,12.75,30.4,30.5,29.5,30.5,28.7,84,84,84,0.482,25.1,26.2,24.3,6.708,5.3,167,7.5,7.5,-0.00003,-0.00003,34.2,36.3,22,0,0,35.8,12.06,0.00,0.00
15min,AgWx,beryljct,423,30JAN2018:04:30:00,28.0,12.76,31.5,31.6,31.4,32.0,30.4,84,84,84,0.504,27.1,27.7,26.1,6.16,6.9,170,6.0,7.8,-0.00001,-0.00000,34.1,36.3,22,0,0,35.7,12.06,0.00,0.00
15min,AgWx,beryljct,423,30JAN2018:04:45:00,28.4,12.75,29.0,29.2,31.4,32.1,29.2,83,84,82,0.460,26.9,27.4,25.0,5.7,6.2,163,11,7.6,-0.00002,-0.00001,34.0,36.2,22,0,0,35.5,12.06,0.00,0.00
15min,AgWx,beryljct,423,30JAN2018:05:00:00,28.4,12.74,29.5,29.5,29.0,29.7,28.4,84,85,84,0.466,24.8,25.5,24.3,6.862,6.8,171,9.6,9.1,-0.00002,-0.00001,34.0,36.2,22,0,0,35.5,12.06,0.00,0.00
15min,AgWx,beryljct,423,30JAN2018:05:15:00,28.3,12.75,28.9,29.1,29.6,29.9,29.1,85,85,84,0.458,25.5,25.8,25.0,2.74,4.6,187,8.2,7.0,-0.00005,-0.00005,34.0,36.2,22,0,0,35.7,12.06,0.00,0.00
15min,AgWx,beryljct,423,30JAN2018:05:30:00,28.0,12.74,30.8,31.0,29.7,31.0,28.8,84,85,80,0.471,25.4,26.0,24.7,1.096,1.5,205,6.1,2.7,-0.00014,-0.00018,33.9,36.1,22,0,0,35.6,12.06,0.00,0.00
15min,AgWx,beryljct,423,30JAN2018:05:45:00,27.6,12.6,27.3,27.6,29.1,30.9,27.6,83,85,80,0.434,24.6,25.5,23.6,1.008,1.6,184,18,3.4,-0.00013,-0.00017,33.8,36.1,22,0,0,35.4,12.06,0.00,0.00
15min,AgWx,beryljct,423,30JAN2018:06:00:00,27.4,12.72,27.6,27.7,27.8,28.3,27.3,85,85,84,0.434,23.8,24.2,23.4,5.59,4.3,332,23,6.2,-0.00005,-0.00006,33.8,36.1,22,0,0,35.3,12.06,0.00,0.00
15min,AgWx,beryljct,423,30JAN2018:06:15:00,27.4,12.71,27.5,27.5,27.6,27.7,27.4,85,85,84,0.429,23.5,23.7,23.3,6.752,6.0,339,4.4,7.5,-0.00003,-0.00002,33.7,36.1,22,0,0,35.3,12.06,0.00,0.00
15min,AgWx,beryljct,423,30JAN2018:06:30:00,27.3,12.7,27.4,27.5,27.6,27.9,27.2,85,85,84,0.431,23.6,23.8,23.2,7.958,6.7,352,6.7,8.2,-0.00002,-0.00001,33.7,36.0,23,0,0,35.6,12.06,0.00,0.00
15min,AgWx,beryljct,423,30JAN2018:06:45:00,27.3,12.71,27.9,28.0,28.0,28.3,27.5,85,85,85,0.438,23.9,24.2,23.5,4.45,6.8,345,8.6,8.8,-0.00002,-0.00001,33.6,36.0,23,0,0,35.9,12.06,0.00,0.00
15min,AgWx,beryljct,423,30JAN2018:07:00:00,27.4,12.71,28.0,28.0,28.2,28.5,27.8,85,85,84,0.439,24.1,24.4,23.8,3.332,4.4,337,4.4,5.5,0.00010,0.00016,33.6,36.0,23,0,0,35.6,12.06,0.00,0.00
15min,AgWx,beryljct,423,30JAN2018:07:15:00,27.3,12.69,27.8,28.0,28.5,29.2,28.0,85,85,84,0.441,24.5,25.2,23.9,5.48,2.8,40,62,5.5,0.00007,0.00012,33.6,35.9,22,0,0,35.9,12.06,0.00,0.00
15min,AgWx,beryljct,423,30JAN2018:07:30:00,27.1,12.7,25.8,25.9,26.6,28.0,25.8,85,85,85,0.404,22.6,24.1,21.8,4.077,4.1,169,14,6.3,0.00009,0.00015,33.5,35.9,22,0,0,35.5,12.06,0.00,0.00
15min,AgWx,beryljct,423,30JAN2018:07:45:00,26.8,12.7,26.9,26.9,26.3,26.9,25.6,85,85,85,0.419,22.3,22.9,21.7,4.428,5.2,177,5.9,6.4,0.00011,0.00019,33.5,35.9,22,3,0,35.6,12.06,0.00,0.00
15min,AgWx,beryljct,423,30JAN2018:08:00:00,26.8,12.78,28.4,28.5,27.9,28.5,26.9,85,85,84,0.450,23.9,24.6,22.8,6.774,5.7,170,7.7,6.8,0.00018,0.00027,33.4,35.9,22,22,0,35.8,12.06,0.00,0.00
15min,AgWx,beryljct,423,30JAN2018:08:15:00,27.2,12.82,30.3,30.2,29.0,30.2,28.3,85,85,82,0.466,25.0,25.5,24.4,6.401,5.9,176,10,7.4,0.00024,0.00034,33.3,35.8,22,38,0,35.6,12.06,0.00,0.00
15min,AgWx,beryljct,423,30JAN2018:08:30:00,29.0,13.3,35.0,34.7,32.4,34.7,30.2,73,82,64,0.432,24.8,25.4,23.6,2.017,2.3,214,83,6.4,0.00048,0.00058,33.2,35.8,22,125,0,36.6,12.06,0.00,0.00
15min,AgWx,beryljct,423,30JAN2018:08:45:00,32.6,13.64,39.7,39.5,37.8,39.7,34.9,57,63,52,0.440,24.0,24.9,23.3,2.499,2.1,276,20,3.2,0.00069,0.00086,33.3,35.7,22,150,0,41.3,12.06,0.00,0.00
15min,AgWx,beryljct,423,30JAN2018:09:00:00,36.4,14.01,32.6,32.8,36.6,41.0,32.8,67,83,48,0.521,26.1,28.2,22.6,5.722,5.0,318,19,8.7,0.00088,0.00114,33.2,35.7,22,195,0,41.0,12.07,0.00,0.00
15min,AgWx,beryljct,423,30JAN2018:09:15:00,38.9,14.48,33.7,33.6,33.5,33.9,32.9,81,83,80,0.528,28.4,29.0,28.0,6.27,6.0,342,16,7.6,0.00081,0.00098,33.2,35.7,22,237,0,37.4,12.07,0.00,0.00
15min,AgWx,beryljct,423,30JAN2018:09:30:00,40.8,14.72,34.9,34.7,34.0,34.8,33.6,77,81,73,0.504,27.7,28.5,26.9,4.275,6.5,357,12,8.8,0.00098,0.00118,33.1,35.7,22,277,0,37.9,12.06,0.00,0.00
15min,AgWx,beryljct,423,30JAN2018:09:45:00,43.0,14.7,37.8,36.7,35.7,37.0,34.7,72,74,70,0.518,27.5,28.6,26.4,2.696,3.0,29,17,4.3,0.00119,0.00137,33.1,35.7,22,313,0,41.0,12.07,0.00,0.00
15min,AgWx,beryljct,423,30JAN2018:10:00:00,46.1,14.67,39.8,39.2,37.9,39.2,36.9,67,70,64,0.521,28.1,28.8,27.2,2.587,1.7,63,20,3.0,0.00142,0.00158,33.1,35.6,22,352,0,45.1,12.06,0.00,0.00
15min,AgWx,beryljct,423,30JAN2018:10:15:00,48.6,14.56,39.3,38.8,39.2,39.6,38.6,67,71,64,0.520,29.1,30.8,27.8,2.214,2.3,71,36,3.9,0.00161,0.00181,33.0,35.6,22,391,0,46.9,12.07,0.00,0.00
15min,AgWx,beryljct,423,30JAN2018:10:30:00,51.0,14.57,42.0,41.4,39.8,41.4,38.7,64,66,62,0.548,28.6,29.5,27.6,0.57,1.4,64,19,3.2,0.00176,0.00195,33.0,35.6,22,420,0,48.5,12.07,0.00,0.00
15min,AgWx,beryljct,423,30JAN2018:10:45:00,53.5,14.49,43.6,42.2,42.1,42.4,41.4,61,63,60,0.552,29.6,30.7,29.1,0,1.0,94,19,2.1,0.00197,0.00216,33.0,35.6,22,451,0,52.4,12.07,0.00,0.00
15min,AgWx,beryljct,423,30JAN2018:11:00:00,55.7,14.46,44.1,44.4,44.0,44.7,42.4,57,61,53,0.552,29.5,30.4,28.3,1.863,1.3,131,19,2.4,0.00221,0.00244,32.9,35.5,22,489,0,54.7,12.07,0.00,0.00
15min,AgWx,beryljct,423,30JAN2018:11:15:00,57.0,14.43,44.9,44.7,44.3,44.8,43.3,58,62,52,0.521,30.4,31.8,28.1,1.995,2.3,126,20,3.6,0.00232,0.00261,33.0,35.5,22,511,0,54.2,12.07,0.00,0.00
15min,AgWx,beryljct,423,30JAN2018:11:30:00,57.8,14,47.0,46.5,45.8,46.5,44.7,52,55,48,0.523,29.2,31.2,27.8,2.039,1.9,105,14,2.6,0.00245,0.00275,33.0,35.5,22,522,0,56.1,12.07,0.00,0.00
15min,AgWx,beryljct,423,30JAN2018:11:45:00,58.5,13.99,49.4,49.0,47.5,49.0,46.5,50,54,46,0.590,29.7,31.9,28.1,0.329,1.9,93,9.2,3.0,0.00261,0.00293,33.3,35.5,22,544,0,57.4,12.07,0.00,0.00
15min,AgWx,beryljct,423,30JAN2018:12:00:00,60.0,13.94,52.2,51.6,50.1,51.6,49.0,46,50,43,0.625,30.1,33.0,28.2,1.162,1.0,105,22,2.6,0.00281,0.00309,34.0,35.5,22,571,0,62.0,12.07,0.00,0.00
15min,AgWx,beryljct,423,30JAN2018:12:15:00,61.8,13.9,54.3,52.6,52.1,52.6,51.5,49,53,47,0.678,33.4,35.5,32.1,0.877,0.9,91,24,2.2,0.00295,0.00323,34.8,35.4,22,585,0,64.2,12.07,0.00,0.00
15min,AgWx,beryljct,423,30JAN2018:12:30:00,63.7,13.87,55.0,55.3,53.5,55.3,52.4,47,51,41,0.671,33.6,35.4,32.0,3.266,2.8,346,27,5.5,0.00300,0.00344,35.9,35.5,22,572,0,62.9,12.07,0.00,0.00
15min,AgWx,beryljct,423,30JAN2018:12:45:00,65.0,13.87,56.0,56.0,55.6,56.3,55.1,42,46,39,0.607,32.6,35.5,31.1,2.565,3.9,350,15,6.2,0.00327,0.00387,37.1,35.4,22,594,0,62.2,12.07,0.00,0.00
15min,AgWx,beryljct,423,30JAN2018:13:00:00,66.4,13.86,58.7,58.3,57.0,58.3,56.0,39,43,32,0.572,32.5,34.9,28.1,3.244,3.6,15,14,5.3,0.00335,0.00396,38.1,35.4,22,598,0,63.9,12.06,0.00,0.00
15min,AgWx,beryljct,423,30JAN2018:13:15:00,67.9,13.8,61.1,60.0,59.2,60.0,58.4,31,38,25,0.479,28.7,32.8,24.1,1.491,2.6,52,22,3.8,0.00335,0.00391,39.2,35.4,22,587,0,66.7,12.07,0.00,0.00
15min,AgWx,beryljct,423,30JAN2018:13:30:00,69.8,13.77,62.9,62.3,61.4,62.4,60.1,29,34,21,0.403,28.5,33.2,21.9,4.735,1.5,144,53,5.6,0.00329,0.00372,40.1,35.5,22,580,0,70.7,12.07,0.00,0.00
15min,AgWx,beryljct,423,30JAN2018:13:45:00,70.9,13.72,62.4,62.5,62.6,62.9,62.2,22,27,16,0.384,22.7,28.6,15.9,7.76,6.7,226,30,11.6,0.00391,0.00510,41.1,35.5,22,577,0,67.8,12.07,0.00,0.00
15min,AgWx,beryljct,423,30JAN2018:14:00:00,70.5,13.73,62.8,62.7,62.5,62.8,62.2,21,25,17,0.441,22.0,26.1,17.0,5.546,7.4,255,18,10.5,0.00381,0.00508,42.0,35.6,22,545,0,66.6,12.06,0.00,0.00
15min,AgWx,beryljct,423,30JAN2018:14:15:00,70.0,13.76,62.8,62.8,62.7,63.0,62.4,21,27,18,0.512,22.6,28.1,18.2,7.782,7.2,261,21,10.8,0.00374,0.00497,42.8,35.6,22,536,0,66.7,12.06,0.00,0.00
15min,AgWx,beryljct,423,30JAN2018:14:30:00,69.7,13.76,62.6,62.3,62.5,63.0,62.1,21,25,17,0.461,21.7,26.2,17.0,9.78,6.6,262,22,11.4,0.00352,0.00467,43.5,35.8,22,508,0,66.9,12.06,0.00,0.00
15min,AgWx,beryljct,423,30JAN2018:14:45:00,69.3,13.77,62.8,62.5,62.3,62.8,61.8,21,27,18,0.387,22.2,27.8,17.8,4.428,5.9,253,20,12.1,0.00313,0.00418,44.0,35.9,22,459,0,66.4,12.06,0.00,0.00
15min,AgWx,beryljct,423,30JAN2018:15:00:00,69.2,13.79,62.6,62.2,62.5,62.9,62.1,22,26,18,0.418,22.7,27.1,17.9,6.62,5.1,229,24,11.2,0.00283,0.00375,44.4,36.1,23,425,0,67.3,12.06,0.00,0.00
15min,AgWx,beryljct,423,30JAN2018:15:15:00,68.9,13.76,63.0,62.7,62.5,62.8,62.1,23,27,19,0.406,23.7,28.3,19.9,9.45,5.9,246,15,10.4,0.00282,0.00383,44.9,36.3,22,408,0,66.0,12.06,0.00,0.00
15min,AgWx,beryljct,423,30JAN2018:15:30:00,68.8,13.76,62.5,62.3,62.5,62.9,62.1,22,27,19,0.460,23.4,28.2,19.1,4.998,5.8,245,29,11.1,0.00268,0.00368,45.2,36.4,22,382,0,65.8,12.06,0.00,0.00
15min,AgWx,beryljct,423,30JAN2018:15:45:00,68.4,13.76,62.0,61.8,62.0,62.6,61.7,24,28,21,0.396,24.6,28.9,21.2,10.02,7.9,283,14,10.5,0.00278,0.00398,45.5,36.6,22,363,0,64.5,12.05,0.00,0.00
15min,AgWx,beryljct,423,30JAN2018:16:00:00,67.6,13.75,61.6,61.4,61.4,61.8,61.1,23,26,20,0.383,23.1,26.5,19.9,8.24,8.1,285,8.4,10.8,0.00244,0.00366,45.6,36.8,22,295,0,63.2,12.06,0.00,0.00
15min,AgWx,beryljct,423,30JAN2018:16:15:00,66.8,13.79,62.4,62.0,61.5,62.0,61.2,22,25,19,0.392,22.6,26.0,19.4,4.187,6.5,272,17,9.9,0.00208,0.00311,45.8,37.0,22,267,0,63.2,12.05,0.00,0.00
15min,AgWx,beryljct,423,30JAN2018:16:30:00,66.1,13.78,61.3,61.2,61.6,62.2,61.2,23,29,20,0.447,23.8,28.8,19.9,9.03,5.6,222,23,10.9,0.00170,0.00258,45.9,37.2,22,226,0,63.3,12.06,0.00,0.00
15min,AgWx,beryljct,423,30JAN2018:16:45:00,65.1,13.83,60.5,60.3,60.3,61.1,59.9,26,30,23,0.453,25.6,28.8,22.2,7.629,7.1,182,11,9.8,0.00164,0.00264,45.8,37.4,23,187,0,61.1,12.05,0.00,0.00
15min,AgWx,beryljct,423,30JAN2018:17:00:00,64.0,13.84,59.7,59.3,59.5,60.3,58.8,29,33,25,0.464,27.2,29.9,24.3,6.16,6.0,185,11,8.1,0.00077,0.00102,45.7,37.6,22,150,0,60.0,12.06,0.00,0.00
15min,AgWx,beryljct,423,30JAN2018:17:15:00,62.8,13.87,57.4,57.2,58.5,59.5,57.2,29,32,26,0.485,25.9,28.7,24.1,6.752,7.1,191,7.6,10.4,0.00075,0.00098,45.7,37.8,23,114,0,58.7,12.06,0.00,0.00
15min,AgWx,beryljct,423,30JAN2018:17:30:00,61.0,13.35,54.9,54.6,55.8,57.1,54.6,32,35,29,0.507,26.3,27.7,24.5,5.437,6.9,185,5.2,9.1,0.00058,0.00076,45.5,38.0,22,63,0,55.5,12.05,0.00,0.00
15min,AgWx,beryljct,423,30JAN2018:17:45:00,58.7,13.19,53.1,52.9,53.4,54.6,52.7,35,37,34,0.472,26.7,27.6,25.4,6.993,6.0,192,6.2,7.6,0.00040,0.00054,45.4,38.2,23,25,0,52.2,12.05,0.00,0.00
15min,AgWx,beryljct,423,30JAN2018:18:00:00,56.6,13.1,52.2,52.1,52.6,53.7,51.7,34,35,31,0.446,24.7,25.8,23.1,7.629,8.0,189,7.1,11.1,0.00048,0.00062,45.0,38.4,22,5,0,50.8,12.05,0.00,0.00
15min,AgWx,beryljct,423,30JAN2018:18:15:00,54.8,13.08,51.9,51.6,51.7,52.0,51.1,34,36,32,0.433,24.1,25.0,22.9,11.27,9.5,188,8.7,12.5,0.00053,0.00066,44.7,38.6,23,3,0,50.1,12.06,0.00,0.00
15min,AgWx,beryljct,423,30JAN2018:18:30:00,53.2,13.06,51.2,50.9,50.9,51.8,50.4,34,36,32,0.430,23.8,24.6,22.7,8.77,8.4,188,7.2,10.5,0.00046,0.00059,44.4,38.7,23,0,0,49.0,12.06,0.00,0.00
15min,AgWx,beryljct,423,30JAN2018:18:45:00,51.9,13.04,48.0,48.3,50.4,51.3,48.3,35,44,32,0.507,23.9,27.4,22.4,4.647,6.7,183,15,10.1,0.00037,0.00049,43.9,38.9,23,0,0,48.2,12.06,0.00,0.00
15min,AgWx,beryljct,423,30JAN2018:19:00:00,50.4,13.03,49.5,49.4,47.5,49.4,45.8,41,47,35,0.435,24.9,27.7,22.6,4.976,5.6,130,18,7.6,0.00024,0.00034,43.6,39.0,23,0,0,46.2,12.06,0.00,0.00
15min,AgWx,beryljct,423,30JAN2018:19:15:00,49.6,13.02,50.1,49.9,51.2,52.4,49.1,32,36,29,0.426,22.3,23.9,20.8,10.9,7.0,171,16,10.9,0.00041,0.00055,43.3,39.2,23,0,0,48.5,12.06,0.00,0.00
15min,AgWx,beryljct,423,30JAN2018:19:30:00,49.0,13.01,48.5,48.2,48.7,49.9,47.3,37,40,34,0.435,23.5,24.3,22.5,7.497,8.0,189,9.9,10.3,0.00040,0.00052,42.8,39.3,23,0,0,47.1,12.06,0.00,0.00
15min,AgWx,beryljct,423,30JAN2018:19:45:00,48.1,13,47.8,47.5,48.3,49.3,47.1,37,41,34,0.443,23.5,24.6,21.7,5.919,3.6,231,38,7.3,0.00013,0.00021,42.6,39.4,23,0,0,45.9,12.06,0.00,0.00
15min,AgWx,beryljct,423,30JAN2018:20:00:00,47.4,13,46.3,46.4,47.0,48.3,44.3,40,48,37,0.431,24.1,26.5,22.9,5.327,5.0,132,69,7.6,0.00021,0.00030,42.2,39.5,22,0,0,45.3,12.06,0.00,0.00
15min,AgWx,beryljct,423,30JAN2018:20:15:00,46.5,12.99,43.8,43.8,44.5,46.7,42.5,47,52,39,0.480,25.3,26.4,21.9,3.31,5.6,99,44,9.9,0.00019,0.00027,41.9,39.6,22,0,0,43.6,12.06,0.00,0.00
15min,AgWx,beryljct,423,30JAN2018:20:30:00,45.4,12.98,44.6,44.8,44.8,45.7,43.3,45,50,42,0.451,24.5,26.2,23.5,6.84,2.9,226,79,7.8,0.00002,0.00006,41.6,39.6,22,0,0,42.2,12.06,0.00,0.00
15min,AgWx,beryljct,423,30JAN2018:20:45:00,44.5,12.98,42.0,42.2,42.8,45.2,40.8,50,55,43,0.457,25.1,26.4,23.7,2.389,5.2,212,65,8.8,0.00015,0.00021,41.3,39.7,23,0,0,41.7,12.06,0.00,0.00
15min,AgWx,beryljct,423,30JAN2018:21:00:00,43.6,12.97,41.2,41.4,43.5,46.0,40.8,47,56,41,0.486,24.7,26.4,23.0,8.51,4.2,117,42,9.3,0.00010,0.00016,41.0,39.7,23,0,0,41.2,12.06,0.00,0.00
15min,AgWx,beryljct,423,30JAN2018:21:15:00,42.7,12.95,40.8,40.8,41.1,41.6,40.1,54,58,52,0.467,25.8,26.6,25.1,2.894,5.6,165,25,8.6,0.00013,0.00019,40.7,39.8,23,0,0,40.2,12.06,0.00,0.00
15min,AgWx,beryljct,423,30JAN2018:21:30:00,41.6,12.95,42.9,43.1,41.2,43.1,40.1,51,55,46,0.433,24.6,25.5,23.4,4.494,1.7,247,44,4.5,-0.00010,-0.00011,40.4,39.8,23,0,0,38.4,12.06,0.00,0.00
15min,AgWx,beryljct,423,30JAN2018:21:45:00,40.9,12.94,40.6,40.8,41.2,43.3,39.6,52,56,45,0.452,24.6,25.5,23.6,1.096,5.1,216,16,7.5,0.00013,0.00018,40.1,39.9,23,0,0,39.8,12.06,0.00,0.00
15min,AgWx,beryljct,423,30JAN2018:22:00:00,40.2,12.93,38.8,38.6,40.7,42.5,38.6,52,58,47,0.458,24.4,25.5,23.2,3.793,2.6,258,24,3.8,-0.00002,-0.00001,39.8,39.9,23,0,0,38.9,12.06,0.00,0.00
15min,AgWx,beryljct,423,30JAN2018:22:15:00,39.3,12.94,37.9,38.1,38.3,39.2,37.4,59,61,57,0.456,25.3,26.1,24.7,1.403,1.8,253,35,4.2,-0.00010,-0.00011,39.6,39.9,23,0,0,36.2,12.06,0.00,0.00
15min,AgWx,beryljct,423,30JAN2018:22:30:00,38.5,12.93,41.3,41.4,39.2,41.4,38.0,54,58,47,0.429,24.1,25.1,22.4,1.271,1.9,273,12,3.6,-0.00009,-0.00009,39.2,32.0,0,0,0,37.1,12.06,0.00,0.00
15min,AgWx,beryljct,423,30JAN2018:22:45:00,38.0,12.93,38.4,38.4,39.5,43.3,37.2,54,61,43,0.441,24.1,25.4,21.9,2.894,1.7,154,64,3.6,-0.00010,-0.00012,38.9,39.9,22,0,0,36.7,12.06,0.00,0.00
15min,AgWx,beryljct,423,30JAN2018:23:00:00,37.4,12.92,38.3,38.6,37.7,38.8,36.3,59,64,54,0.452,24.6,25.3,23.3,4.45,5.2,236,18,6.7,0.00008,0.00012,38.7,39.8,23,0,0,36.9,12.06,0.00,0.00
15min,AgWx,beryljct,423,30JAN2018:23:15:00,36.9,12.91,40.6,40.8,38.0,41.4,36.1,58,63,48,0.420,24.3,25.3,22.6,1.863,3.4,207,14,4.5,0.00001,0.00003,38.5,39.7,22,0,0,36.1,12.06,0.00,0.00
15min,AgWx,beryljct,423,30JAN2018:23:30:00,36.3,12.89,33.0,33.2,37.5,41.8,33.2,60,72,46,0.462,24.7,25.7,22.5,2.718,1.7,124,76,5.0,-0.00010,-0.00012,38.1,39.8,23,0,0,36.0,12.06,0.00,0.00
15min,AgWx,beryljct,423,30JAN2018:23:45:00,35.3,12.88,34.3,34.7,33.2,34.7,32.5,73,76,67,0.458,25.5,25.8,25.0,2.28,1.5,321,83,2.9,-0.00013,-0.00017,37.9,39.7,22,0,0,35.6,12.06,0.00,0.00
15min,AgWx,bigpiney,439,30JAN2018:00:00:00,20.5,12.84,18.8,18.5,19.0,20.9,16.9,89,92,84,0.298,16.2,18.8,14.5,1.162,2.7,291,34,5.0,-0.00003,-0.00004,30.5,31.2,12,0,0,0.0,.,0.00,0.00
15min,AgWx,bigpiney,439,30JAN2018:00:15:00,20.4,12.82,17.9,17.2,18.3,21.7,16.9,87,91,79,0.293,15.0,19.2,12.3,1.337,1.2,19,60,3.8,-0.00005,-0.00007,30.5,31.2,12,0,0,0.0,.,0.00,0.00
15min,AgWx,bigpiney,439,30JAN2018:00:30:00,20.3,12.82,18.4,18.0,16.9,18.1,15.4,89,92,87,0.304,14.2,15.9,12.2,2.324,2.1,347,50,4.1,-0.00004,-0.00005,30.5,31.2,12,0,0,0.0,.,0.00,0.00
15min,AgWx,bigpiney,439,30JAN2018:00:45:00,20.1,12.81,16.8,16.8,17.5,18.4,16.8,88,90,87,0.285,14.6,16.0,13.9,0.68,2.0,41,20,4.0,-0.00004,-0.00005,30.5,31.2,12,0,0,0.0,.,0.00,0.00
15min,AgWx,bigpiney,439,30JAN2018:01:00:00,19.9,12.81,17.3,16.9,16.6,17.1,16.2,89,90,88,0.292,14.1,14.8,13.4,0,0.7,53,19,3.3,-0.00007,-0.00009,30.4,31.2,12,0,0,0.0,.,0.00,0.00
15min,AgWx,bigpiney,439,30JAN2018:01:15:00,19.8,12.79,15.8,16.0,17.1,17.6,16.0,89,90,87,0.274,14.6,15.1,13.0,3.025,1.8,232,17,4.4,-0.00004,-0.00006,30.4,31.2,12,0,0,0.0,.,0.00,0.00
15min,AgWx,bigpiney,439,30JAN2018:01:30:00,19.7,12.79,17.3,16.9,16.6,17.2,15.9,89,90,88,0.287,14.0,14.7,12.9,3.551,2.2,247,14,4.2,-0.00004,-0.00004,30.4,31.2,12,0,0,0.0,.,0.00,0.00
15min,AgWx,bigpiney,439,30JAN2018:01:45:00,19.9,12.77,18.5,17.7,17.1,17.7,16.9,89,90,89,0.301,14.4,15.2,14.0,0.899,2.1,213,36,5.7,-0.00004,-0.00004,30.4,31.2,12,0,0,0.0,.,0.00,0.00
15min,AgWx,bigpiney,439,30JAN2018:02:00:00,20.3,12.77,19.5,19.1,18.6,19.2,17.7,89,90,89,0.318,16.0,16.5,15.2,0.68,2.2,201,19,5.2,-0.00004,-0.00005,30.3,31.2,12,0,0,0.0,.,0.00,0.00
15min,AgWx,bigpiney,439,30JAN2018:02:15:00,20.8,12.75,19.8,19.4,19.2,19.4,19.1,89,89,89,0.322,16.5,16.7,16.3,0.153,2.1,191,29,6.2,-0.00004,-0.00005,30.3,31.2,12,0,0,0.0,.,0.00,0.00
15min,AgWx,bigpiney,439,30JAN2018:02:30:00,21.2,12.75,19.0,19.0,19.3,19.5,19.0,89,89,88,0.313,16.5,16.7,16.0,3.946,3.7,207,27,7.0,-0.00002,-0.00002,30.3,31.1,12,0,0,0.0,.,0.00,0.00
15min,AgWx,bigpiney,439,30JAN2018:02:45:00,21.3,12.74,19.8,18.7,18.2,19.0,17.5,88,90,87,0.318,15.3,16.4,14.5,4.275,3.9,218,32,7.4,-0.00002,-0.00002,30.3,31.2,12,0,0,0.0,.,0.00,0.00
15min,AgWx,bigpiney,439,30JAN2018:03:00:00,21.2,12.73,20.2,19.6,18.9,19.7,18.1,89,90,87,0.321,16.1,17.1,15.0,3.398,3.7,226,40,5.6,-0.00002,-0.00002,30.3,31.2,12,0,0,0.0,.,0.00,0.00
15min,AgWx,bigpiney,439,30JAN2018:03:15:00,21.2,12.74,20.4,19.8,19.2,20.0,18.6,88,89,86,0.325,16.2,17.1,15.2,4.143,4.8,221,24,6.4,-0.00001,-0.00000,30.2,31.2,12,0,0,0.0,.,0.00,0.00
15min,AgWx,bigpiney,439,30JAN2018:03:30:00,21.3,12.72,19.7,19.4,19.7,20.1,18.9,87,88,86,0.319,16.5,17.1,15.3,4.801,3.3,227,17,4.9,-0.00002,-0.00002,30.2,31.2,12,0,0,0.0,.,0.00,0.00
15min,AgWx,bigpiney,439,30JAN2018:03:45:00,21.3,12.72,20.6,19.9,18.9,19.9,18.3,88,90,86,0.332,15.9,17.4,15.2,0.197,2.8,279,37,5.2,-0.00003,-0.00003,30.2,31.2,12,0,0,0.0,.,0.00,0.00
15min,AgWx,bigpiney,439,30JAN2018:04:00:00,21.2,12.7,18.8,18.5,19.5,20.1,18.4,89,90,87,0.306,16.7,17.6,15.2,0,2.4,12,27,6.0,-0.00004,-0.00004,30.2,31.1,12,0,0,0.0,.,0.00,0.00
15min,AgWx,bigpiney,439,30JAN2018:04:15:00,20.8,12.7,17.8,17.2,17.9,18.9,16.3,89,91,84,0.296,15.2,16.4,12.4,0.636,0.7,171,61,1.6,-0.00007,-0.00010,30.2,31.1,12,0,0,0.0,.,0.00,0.00
15min,AgWx,bigpiney,439,30JAN2018:04:30:00,20.4,12.69,18.3,18.3,18.0,18.6,17.2,91,92,90,0.312,15.9,16.5,14.7,1.184,1.6,356,63,4.3,-0.00005,-0.00007,30.2,31.2,12,0,0,0.0,.,0.00,0.00
15min,AgWx,bigpiney,439,30JAN2018:04:45:00,20.0,12.68,17.8,17.4,17.4,18.2,16.9,91,92,89,0.304,15.2,16.0,14.4,2.214,1.1,347,32,2.8,-0.00006,-0.00008,30.2,31.2,12,0,0,0.0,.,0.00,0.00
15min,AgWx,bigpiney,439,30JAN2018:05:00:00,19.5,12.68,18.3,17.7,17.2,17.8,16.8,91,92,90,0.308,15.0,15.8,14.4,0,1.7,330,26,4.6,-0.00005,-0.00006,30.1,31.1,12,0,0,0.0,.,0.00,0.00
15min,AgWx,bigpiney,439,30JAN2018:05:15:00,19.1,12.68,15.1,15.8,17.4,18.2,15.8,91,92,88,0.272,15.1,16.1,12.8,2.302,2.2,277,40,4.0,-0.00004,-0.00005,30.1,31.1,12,0,0,0.0,.,0.00,0.00
15min,AgWx,bigpiney,439,30JAN2018:05:30:00,18.7,12.67,16.8,15.8,15.6,17.1,14.5,89,92,87,0.282,13.0,15.2,11.7,1.491,2.9,269,15,4.2,-0.00003,-0.00003,30.1,31.2,12,0,0,0.0,.,0.00,0.00
15min,AgWx,bigpiney,439,30JAN2018:05:45:00,18.5,12.67,17.1,16.7,16.8,17.8,15.5,90,92,88,0.286,14.4,15.9,13.1,4.275,2.4,255,38,4.3,-0.00004,-0.00004,30.0,31.1,12,0,0,0.0,.,0.00,0.00
15min,AgWx,bigpiney,439,30JAN2018:06:00:00,18.5,12.66,16.3,15.7,16.1,16.7,15.7,89,89,88,0.274,13.3,14.0,12.9,4.275,3.8,222,13,6.1,-0.00002,-0.00002,30.0,31.1,12,0,0,0.0,.,0.00,0.00
15min,AgWx,bigpiney,439,30JAN2018:06:15:00,18.4,12.66,15.5,15.1,15.6,16.8,14.9,89,91,88,0.268,13.0,14.6,12.1,4.056,4.6,230,11,6.2,-0.00001,-0.00001,30.0,31.0,12,0,0,0.0,.,0.00,0.00
15min,AgWx,bigpiney,439,30JAN2018:06:30:00,18.1,12.65,16.3,16.1,15.8,16.7,15.2,90,91,89,0.278,13.3,14.5,12.5,3.793,3.8,231,13,5.0,-0.00002,-0.00002,30.0,31.1,12,0,0,0.0,.,0.00,0.00
15min,AgWx,bigpiney,439,30JAN2018:06:45:00,17.9,12.65,15.1,15.0,15.4,16.0,15.0,89,90,88,0.264,12.7,13.3,12.1,5.459,4.1,239,13,5.9,-0.00001,-0.00001,30.0,31.1,12,0,0,0.0,.,0.00,0.00
15min,AgWx,bigpiney,439,30JAN2018:07:00:00,17.6,12.64,14.5,14.0,14.5,15.0,13.9,88,90,87,0.252,11.6,12.5,11.0,4.077,4.0,242,16,6.1,-0.00001,-0.00001,29.9,31.1,12,0,0,0.0,.,0.00,0.00
15min,AgWx,bigpiney,439,30JAN2018:07:15:00,17.2,12.63,13.9,13.1,14.1,15.7,12.0,88,91,86,0.245,11.2,13.4,8.5,3.749,3.0,261,44,5.9,-0.00002,-0.00002,29.9,31.1,12,0,0,0.0,.,0.00,0.00
15min,AgWx,bigpiney,439,30JAN2018:07:30:00,16.8,12.64,19.6,18.0,16.2,18.0,13.1,90,93,85,0.317,13.9,16.3,10.5,0,1.2,284,44,3.9,-0.00005,-0.00007,29.9,31.1,12,1,0,0.0,.,0.00,0.00
15min,AgWx,bigpiney,439,30JAN2018:07:45:00,16.7,12.68,17.3,15.6,16.9,18.7,15.0,90,93,87,0.274,14.5,16.9,12.1,1.951,1.1,65,54,3.7,-0.00005,-0.00007,29.9,31.1,12,4,0,0.0,.,0.00,0.00